This demonstration page uses our WeatherBlox Daily Observations layout. Learn more.

Left ArrowRight Arrow

39.12711, -84.51439

Hourly Observations for October 11, 2020

Temp ( °F °C ) Dew Point ( °F °C ) Humidity (%) Winds ( mph kmh ) Pressure ( in mb ) Visibility ( mi km ) Precip ( " mm )
12:00 am 00:00 Clear with Mist and Fog 61 16.1 60 15.6 97 97 Calm 29.95 1014 2 2 0.00 0.00
12:02 am 00:02 Clear with Mist and Fog 61 16.1 60 15.6 97 97 Calm 29.95 1014 3 5 0.00 0.00
12:39 am 00:39 Partly Cloudy with Mist and Fog 62 16.7 61 16.1 96 96 Calm 29.96 1015 2 3 0.00 0.00
12:49 am 00:49 Partly Cloudy with Mist and Fog 61 16 61 16 100 100 Calm 29.97 1015 3 5 0.00 0.00
12:53 am 00:53 Mostly Cloudy with Mist and Fog 61 16.1 60 15.6 97 97 Calm 29.96 1015 5 8 0.00 0.00
1:53 am 01:53 Mostly Cloudy with Mist and Fog 62 16.7 61 16.1 96 96 Calm 29.94 1014 6 10 0.00 0.00
2:34 am 02:34 Clear with Mist and Fog 62 16.7 61 16.1 96 96 Calm 29.93 1014 2 3 0.00 0.00
2:53 am 02:53 Clear with Mist and Fog 61 16.1 60 15.6 97 97 Calm 29.92 1013 1 1 0.00 0.00
3:13 am 03:13 Clear with Mist and Fog 61 16.1 60 15.6 97 97 N 5 7 29.94 1014 2 3 0.00 0.00
3:21 am 03:21 Clear with Mist and Fog 61 16.1 60 15.6 97 97 Calm 29.94 1014 5 8 0.00 0.00
3:53 am 03:53 Clear 62 16.7 60 15.6 93 93 Calm 29.93 1013 7 11 0.00 0.00
4:53 am 04:53 Mostly Cloudy 63 17.2 61 16.1 93 93 NNE 5 7 29.92 1013 10 16 0.00 0.00
5:53 am 05:53 Mostly Cloudy 63 17.2 61 16.1 93 93 NE 5 7 29.90 1013 10 16 0.00 0.00
6:53 am 06:53 Mostly Clear 63 17.2 62 16.7 97 97 NNE 5 7 29.90 1013 10 16 0.00 0.00
7:53 am 07:53 Partly Cloudy with Light Rain 64 17.8 62 16.7 93 93 N 3 6 29.90 1013 10 16 0.00 0.00
8:53 am 08:53 Cloudy 63 17.2 62 16.7 97 97 S 5 7 29.93 1014 7 11 0.01 0.25
9:53 am 09:53 Cloudy with Light Rain 66 18.9 63 17.2 90 90 N 5 7 29.95 1014 8 13 0.00 0.00
10:53 am 10:53 Mostly Cloudy 68 20 64 17.8 87 87 NE 6 9 29.94 1014 10 16 0.00 0.00
11:53 am 11:53 Mostly Cloudy 69 20.6 63 17.2 81 81 NE 9 15 29.93 1014 10 16 0.00 0.00
12:06 pm 12:06 Mostly Cloudy 70 21.1 63 17.2 79 79 NE 8 13 29.93 1013 10 16 0.00 0.00
12:53 pm 12:53 Cloudy 69 20.6 63 17.2 81 81 NE 8 13 29.93 1013 10 16 0.00 0.00
1:53 pm 13:53 Cloudy 71 21.7 62 16.7 73 73 ENE 8 13 29.91 1013 10 16 0.00 0.00
2:53 pm 14:53 Cloudy 71 21.7 63 17.2 76 76 ENE 12 19 29.90 1013 10 16 0.00 0.00
3:53 pm 15:53 Partly Cloudy 72 22.2 63 17.2 73 73 NE 10 17 29.88 1012 10 16 0.00 0.00
4:20 pm 16:20 Cloudy 73 22.8 64 17.8 74 74 ENE 12 19 29.87 1012 10 16 0.00 0.00
4:53 pm 16:53 Cloudy 72 22.2 63 17.2 73 73 NE 10 17 29.88 1012 10 16 0.00 0.00
5:53 pm 17:53 Cloudy 71 21.7 63 17.2 76 76 NE 7 11 29.88 1012 10 16 0.00 0.00
6:53 pm 18:53 Cloudy 70 21.1 62 16.7 76 76 NE 6 9 29.89 1012 10 16 0.00 0.00
7:53 pm 19:53 Cloudy 70 21.1 62 16.7 76 76 ENE 13 20 29.90 1013 10 16 0.00 0.00
8:15 pm 20:15 Cloudy 69 20.6 61 16.1 76 76 ENE 7 11 29.90 1012 10 16 0.00 0.00
8:22 pm 20:22 Cloudy 69 20.6 61 16.1 76 76 NE 5 7 29.91 1013 10 16 0.00 0.00
8:53 pm 20:53 Cloudy 69 20.6 61 16.1 76 76 NE 8 13 29.91 1013 10 16 0.00 0.00
9:53 pm 21:53 Cloudy 69 20.6 62 16.7 78 78 ENE 8 13 29.90 1013 10 16 0.00 0.00
10:04 pm 22:04 Cloudy 69 20.6 62 16.7 78 78 ENE 8 13 29.90 1012 10 16 0.00 0.00
10:53 pm 22:53 Cloudy 67 19.4 63 17.2 87 87 NE 6 9 29.90 1013 10 16 0.00 0.00
11:31 pm 23:31 Cloudy 67 19.4 63 17.2 87 87 NE 3 6 29.89 1012 10 16 0.00 0.00
11:53 pm 23:53 Cloudy 67 19.4 63 17.2 87 87 NNE 5 7 29.88 1012 10 16 0.00 0.00

Powered by AerisWeather